This is the latest recevied weather packets stored in our database for station/object OE5ERN-10. If no packets are shown the sender has not sent any weather packets the latest 10 day(s).
| Time | Temp. | Humidity | Pressure | Rain* | Wind** | Luminosity | Snow |
|---|---|---|---|---|---|---|---|
| 1777326948 | 9.44° C | 48% | 1022.8 hPa | 0 mm | - | - | - |
| 1777326048 | 9.44° C | 48% | 1022.8 hPa | 0 mm | - | - | - |
| 1777325148 | 10° C | 48% | 1023 hPa | 0 mm | - | - | - |
| 1777324248 | 10° C | 48% | 1023.1 hPa | 0 mm | - | - | - |
| 1777323348 | 10.56° C | 47% | 1023.1 hPa | 0 mm | - | - | - |
| 1777322448 | 11.11° C | 47% | 1023.1 hPa | 0 mm | - | - | - |
| 1777321548 | 11.11° C | 47% | 1023 hPa | 0 mm | - | - | - |
| 1777320648 | 11.67° C | 46% | 1023.1 hPa | 0 mm | - | - | - |
| 1777319748 | 11.67° C | 46% | 1023.1 hPa | 0 mm | - | - | - |
| 1777318849 | 12.22° C | 46% | 1023.1 hPa | 0 mm | - | - | - |
| 1777317948 | 12.78° C | 45% | 1023.1 hPa | 0 mm | - | - | - |
| 1777317049 | 13.33° C | 44% | 1022.9 hPa | 0 mm | - | - | - |
| 1777316149 | 13.33° C | 43% | 1022.7 hPa | 0 mm | - | - | - |
| 1777315249 | 14.44° C | 42% | 1022.4 hPa | 0 mm | - | - | - |
| 1777314349 | 14.44° C | 41% | 1022.1 hPa | 0 mm | - | - | - |
| 1777313448 | 15° C | 40% | 1022 hPa | 0 mm | - | - | - |
| 1777312549 | 15.56° C | 37% | 1022 hPa | 0 mm | - | - | - |
| 1777311649 | 16.67° C | 35% | 1022 hPa | 0 mm | - | - | - |
| 1777310749 | 17.78° C | 32% | 1021.8 hPa | 0 mm | - | - | - |
| 1777309849 | 18.89° C | 30% | 1021.9 hPa | 0 mm | - | - | - |
| 1777308949 | 20° C | 25% | 1021.7 hPa | 0 mm | - | - | - |
| 1777308049 | 20.56° C | 24% | 1021.9 hPa | 0 mm | - | - | - |
| 1777307149 | 21.11° C | 23% | 1021.8 hPa | 0 mm | - | - | - |
| 1777306249 | 22.22° C | 23% | 1022 hPa | 0 mm | - | - | - |
| 1777305349 | 22.78° C | 23% | 1022.2 hPa | 0 mm | - | - | - |
* Rain latest hour (hover to see other rain measurements)
** Current wind speed in m/s (hover to see current wind gust speed)